Location: Newark
(49.1939°N, 0.8136°E)
Time: 16:04:44
(UTC+00:00)

Envisat - Pass Details

Date: 28 November 2019
Orbit: 764 x 766 km, 98.1° (Epoch: 08 December)

Event Time Altitude Azimuth Distance (km) Brightness Sun altitude
Rises 16:43:29 0° 133° (SE) 3,224 6.0 -6.6°
Reaches altitude 10° 16:46:00 10° 123° (ESE) 2,301 5.2 -7.0°
Maximum altitude 16:50:22 30° 63° (ENE) 1,350 3.7 -7.6°
Drops below altitude 10° 16:54:46 10° 4° (N) 2,314 5.2 -8.3°
Sets 16:57:18 0° 354° (N) 3,244 6.1 -8.7°
